Atlantic - Newfoundland: Past 24 Hour Conditions

 

Stephenville Airport

03:30 PM NDT 22 September 2014
This table is a summary of hourly weather conditions for the past 24 hours.
Date / Time
(NDT)
Wind(knots) Conditions Visibility(km) Pressure(kPa) Air tempC) Relative humidity(%) Dew pointC) Humidex
22 September 2014
15:30 SW 10 gust 16 Cloudy 19 99.5 19 92 18 *
14:30 SW 18 gust 25 Light Rain 13 99.5 19 92 18 *
13:30 SSW 18 gust 28 Light Rain 6 99.4 20 95 19 *
12:30 S 17 gust 25 Light Rain 16 99.6 21 86 18 27
11:30 S 23 gust 32 Light Rain 16 99.7 20 84 18 26
10:30 SSE 17 gust 25 Light Rain 19 99.9 20 83 17 25
9:30 S 15 gust 23 Light Rain 19 100.2 19 87 17 *
8:30 S 15 gust 22 Light Rain 16 100.3 19 90 17 *
7:30 SSE 15 gust 20 Light Rain 16 100.4 19 88 17 *
6:30 SSE 12 gust 17 Light Rain 6 100.6 19 92 18 *
5:30 E 12 Rain 5 100.8 18 95 18 *
4:30 E 10 Light Rainshower 19 101.0 19 94 18 *
3:30 S 7 Light Rainshower 19 101.2 18 93 17 *
2:30 S 7 Cloudy 24 101.3 19 92 17 *
1:30 S 10 Mostly Cloudy 24 101.4 19 88 16 *
0:30 calm Mostly Cloudy 24 101.5 18 88 16 *
21 September 2014
23:30 calm Partly Cloudy 24 101.5 18 79 15 *
22:30 WSW 5 Mostly Cloudy 24 101.5 19 75 14 *
21:30 WSW 5 Mostly Cloudy 24 101.4 18 80 14 *
20:30 SSW 5 Mostly Cloudy 24 101.4 18 79 14 *
19:30 S 10 Mostly Cloudy 24 101.4 18 76 14 *
18:30 W 5 Mainly Sunny 24 101.4 19 69 13 *
17:30 WSW 15 Partly Cloudy 24 101.4 20 65 13 *
16:30 WSW 10 Mostly Cloudy 24 101.4 20 64 13 *
15:30 WSW 15 Partly Cloudy 24 101.4 20 66 13 *
 
Map of Atlantic - Newfoundland marine weather areas Southwestern Grand Banks - 44138 Banquereau - 44139 Tail of the Bank - 44140 Nickerson Bank - 44251 Northeast Burgeo Bank - 44255 Blanc-Sablon Airport Cap Whittle Chevery Natashquan Airport Heath Point Miscou Island Grand Étang Ingonish Beach North Mountain St.Paul Island J.A. Douglas McCurdy Sydney Airport Charlottetown Airport East Point North Cape Argentia Bonavista Burgeo Cape Race Corner Brook Daniel's Harbour Englee Ferolle Point La Scie Port aux Basques Rocky Harbour Sagona Island St. Anthony Airport St. John's Int'l Airport St. Lawrence Stephenville Airport Twillingate Winterland Wreckhouse Cartwright Airport Mary's Harbour Grates Cove Pool's Island Marticot Island Long Pond Îles de la Madeleine Airport
Legend: buoyBuoy land stationLand Station